Weather History for DeLand, FL

Change the Weather History Date:

Sunday, July 21, 2013

  Actual Average Record
Temperature  
Mean Temperature 83 °F -  
Max Temperature 95 °F 91 °F 95 °F (2013)
Min Temperature 71 °F 70 °F 71 °F (2013)
Cooling Degree Days 18    
Growing Degree Days 33 (Base 50)    
Moisture  
Dew Point 74 °F    
Average Humidity 89    
Maximum Humidity 100    
Minimum Humidity 49    
Precipitation  
Precipitation 0.00 in - - ()
Sea Level Pressure  
Sea Level Pressure 30.10 in    
Wind  
Wind Speed 1 mph (SSW)    
Max Wind Speed 32 mph    
Max Gust Speed 45 mph    
Visibility 7 miles    
Events      
Averages and records for this station are not official NWS values.
T = Trace of Precipitation, MM = Missing Value Source: NWS Daily Summary

Daily Weather History Graph

Daily Weather History Graph

Search for Another Location

Airport:

Trip Planner

Search our weather history database for the weather conditions in past years. The results will help you decide how hot, cold, wet, or windy it might be!

Date:

Astronomy

Jul. 21, 2013 Rise Set
Actual Time 6:39 AM EDT 8:23 PM EDT
Civil Twilight 6:13 AM EDT 8:49 PM EDT
Nautical Twilight 5:41 AM EDT 9:20 PM EDT
Astronomical Twilight 5:08 AM EDT 9:53 PM EDT
Moon 7:23 PM EDT (7/21) 5:22 AM EDT (7/21)
Length of Visible Light 14h 35m
Length of Day
13h 43m
Waxing Gibbous, 98% of the Moon is Illuminated
Jul 21
Waxing Gibbous
Jul 22
Full
Jul 29
Last Quarter
Aug 6
New
Aug 14
First Quarter

Hourly Weather History & Observations

Time (EDT) Temp. Heat Index Dew Point Humidity Pressure Visibility Wind Dir Wind Speed Gust Speed Precip Events Conditions
12:15 AM 73.4 °F - 73.4 °F 100% 30.11 in 7.0 mi Calm Calm - N/A   Clear
12:35 AM 73.4 °F - 73.4 °F 100% 30.11 in 8.0 mi Calm Calm - N/A   Clear
12:55 AM 73.4 °F - 73.4 °F 100% 30.12 in 8.0 mi Calm Calm - N/A   Clear
1:15 AM 73.4 °F - 73.4 °F 100% 30.12 in 3.0 mi Calm Calm - N/A   Clear
1:35 AM 73.4 °F - 73.4 °F 100% 30.11 in 7.0 mi Calm Calm - N/A   Clear
1:55 AM 73.4 °F - 73.4 °F 100% 30.10 in 6.0 mi Calm Calm - N/A   Clear
2:15 AM 73.4 °F - 73.4 °F 100% 30.10 in 7.0 mi Calm Calm - N/A   Clear
2:35 AM 73.4 °F - 73.4 °F 100% 30.09 in 7.0 mi Calm Calm - N/A   Clear
2:55 AM 73.4 °F - 73.4 °F 100% 30.09 in 7.0 mi Calm Calm - N/A   Clear
3:15 AM 73.4 °F - 73.4 °F 100% 30.09 in 7.0 mi Calm Calm - N/A   Clear
3:35 AM 73.4 °F - 73.4 °F 100% 30.09 in 7.0 mi Calm Calm - N/A   Clear
3:55 AM 73.4 °F - 73.4 °F 100% 30.08 in 7.0 mi Calm Calm - N/A   Clear
4:15 AM 73.4 °F - 71.6 °F 94% 30.08 in 5.0 mi Calm Calm - N/A   Clear
4:35 AM 73.4 °F - 71.6 °F 94% 30.08 in 5.0 mi Calm Calm - N/A   Clear
4:55 AM 73.4 °F - 71.6 °F 94% 30.08 in 5.0 mi Calm Calm - N/A   Partly Cloudy
5:15 AM 71.6 °F - 71.6 °F 100% 30.08 in 1.0 mi Calm Calm - N/A   Overcast
5:35 AM 73.4 °F - 71.6 °F 94% 30.08 in 0.5 mi Calm Calm - N/A   Overcast
5:55 AM 73.4 °F - 71.6 °F 94% 30.08 in 0.2 mi Calm Calm - N/A   Overcast
6:15 AM 73.4 °F - 71.6 °F 94% 30.09 in 0.2 mi Calm Calm - N/A   Overcast
6:35 AM 73.4 °F - 71.6 °F 94% 30.09 in 0.5 mi Calm Calm - N/A   Overcast
6:55 AM 73.4 °F - 73.4 °F 100% 30.09 in 0.2 mi Calm Calm - N/A   Overcast
7:15 AM 73.4 °F - 73.4 °F 100% 30.10 in 0.5 mi Calm Calm - N/A   Overcast
7:35 AM 73.4 °F - 73.4 °F 100% 30.10 in 8.0 mi Calm Calm - N/A   Partly Cloudy
7:55 AM 75.2 °F - 73.4 °F 94% 30.11 in 10.0 mi Calm Calm - N/A   Clear
8:15 AM 75.2 °F - 75.2 °F 100% 30.12 in 9.0 mi Calm Calm - N/A   Clear
8:35 AM 75.2 °F - 75.2 °F 100% 30.13 in 10.0 mi Calm Calm - N/A   Clear
8:55 AM 75.2 °F - 75.2 °F 100% 30.13 in 10.0 mi Calm Calm - N/A   Clear
9:15 AM 77.0 °F - 75.2 °F 94% 30.13 in 9.0 mi Calm Calm - N/A   Clear
9:35 AM 77.0 °F - 75.2 °F 94% 30.14 in 10.0 mi Calm Calm - N/A   Clear
9:55 AM 78.8 °F - 77.0 °F 94% 30.14 in 9.0 mi Calm Calm - N/A   Clear
10:15 AM 78.8 °F - 78.8 °F 100% 30.15 in 9.0 mi Calm Calm - N/A   Clear
10:35 AM 78.8 °F - 78.8 °F 100% 30.15 in 9.0 mi Calm Calm - N/A   Clear
10:55 AM 80.6 °F 88.1 °F 78.8 °F 94% 30.15 in 9.0 mi Calm Calm - N/A   Clear
11:15 AM 82.4 °F 92.4 °F 78.8 °F 89% 30.15 in 9.0 mi Calm Calm - N/A   Clear
11:35 AM 84.2 °F 96.1 °F 78.8 °F 84% 30.15 in 9.0 mi Calm Calm - N/A   Clear
11:55 AM 86.0 °F 99.3 °F 78.8 °F 79% 30.14 in 10.0 mi Calm Calm - N/A   Clear
12:15 PM 89.6 °F 104.7 °F 78.8 °F 70% 30.14 in 9.0 mi Calm Calm - N/A   Scattered Clouds
12:35 PM 91.4 °F 107.2 °F 78.8 °F 66% 30.13 in 8.0 mi Calm Calm - N/A   Partly Cloudy
12:55 PM 91.4 °F 107.2 °F 78.8 °F 66% 30.12 in 9.0 mi Calm Calm - N/A   Partly Cloudy
1:55 PM 91.4 °F 102.5 °F 75.2 °F 59% 30.10 in 10.0 mi SSW 6.9 mph - N/A   Scattered Clouds
2:15 PM 91.4 °F 102.5 °F 75.2 °F 59% 30.09 in 9.0 mi Calm Calm - N/A   Partly Cloudy
2:35 PM 93.2 °F 105.0 °F 75.2 °F 56% 30.08 in 9.0 mi SSW 10.4 mph - N/A   Scattered Clouds
2:55 PM 93.2 °F 105.0 °F 75.2 °F 56% 30.07 in 9.0 mi SSW 8.1 mph - N/A   Partly Cloudy
3:15 PM 93.2 °F 105.0 °F 75.2 °F 56% 30.07 in 9.0 mi South 3.5 mph - N/A   Scattered Clouds
3:35 PM 95.0 °F 104.5 °F 73.4 °F 49% 30.07 in 8.0 mi Calm Calm - N/A   Scattered Clouds
3:55 PM 95.0 °F 104.5 °F 73.4 °F 49% 30.05 in 7.0 mi SW 6.9 mph - N/A   Partly Cloudy
4:15 PM 89.6 °F 98.2 °F 73.4 °F 59% 30.06 in 9.0 mi Calm Calm - N/A   Scattered Clouds
4:35 PM 87.8 °F 95.6 °F 73.4 °F 62% 30.06 in 9.0 mi NNW 10.4 mph - N/A   Scattered Clouds
4:55 PM 77.0 °F - 71.6 °F 83% 30.11 in - SSW 32.2 mph 44.9 mph N/A   Overcast
5:15 PM 73.4 °F - 69.8 °F 88% 30.06 in 5.0 mi Calm Calm - N/A   Mostly Cloudy
5:35 PM 73.4 °F - 69.8 °F 88% 30.06 in 5.0 mi Calm Calm - N/A   Clear
5:55 PM 73.4 °F - 69.8 °F 88% 30.06 in 5.0 mi Calm Calm - N/A   Clear
6:15 PM 73.4 °F - 71.6 °F 94% 30.06 in 9.0 mi Calm Calm - N/A   Partly Cloudy
6:35 PM 75.2 °F - 71.6 °F 89% 30.07 in 9.0 mi Calm Calm - N/A   Clear
6:55 PM 75.2 °F - 73.4 °F 94% 30.09 in 9.0 mi Calm Calm - N/A   Partly Cloudy
7:15 PM 75.2 °F - 73.4 °F 94% 30.09 in 10.0 mi Calm Calm - N/A   Partly Cloudy
7:35 PM 75.2 °F - 73.4 °F 94% 30.10 in 10.0 mi Calm Calm - N/A   Mostly Cloudy
7:55 PM 75.2 °F - 73.4 °F 94% 30.10 in 9.0 mi Calm Calm - N/A   Mostly Cloudy
8:15 PM 75.2 °F - 73.4 °F 94% 30.10 in 8.0 mi Calm Calm - N/A   Partly Cloudy
8:35 PM 75.2 °F - 73.4 °F 94% 30.11 in 7.0 mi Calm Calm - N/A   Clear
8:55 PM 75.2 °F - 73.4 °F 94% 30.11 in 7.0 mi Calm Calm - N/A   Clear
9:15 PM 75.2 °F - 75.2 °F 100% 30.12 in 7.0 mi Calm Calm - N/A   Clear
9:35 PM 75.2 °F - 75.2 °F 100% 30.12 in 8.0 mi Calm Calm - N/A   Clear
9:55 PM 75.2 °F - 75.2 °F 100% 30.13 in 8.0 mi Calm Calm - N/A   Clear
10:15 PM 75.2 °F - 75.2 °F 100% 30.13 in 9.0 mi Calm Calm - N/A   Partly Cloudy
10:35 PM 77.0 °F - 75.2 °F 94% 30.13 in 9.0 mi Calm Calm - N/A   Partly Cloudy
10:55 PM 75.2 °F - 73.4 °F 94% 30.13 in 9.0 mi Calm Calm - N/A   Clear
11:15 PM 75.2 °F - 73.4 °F 94% 30.13 in 9.0 mi Calm Calm - N/A   Clear
11:35 PM 75.2 °F - 73.4 °F 94% 30.13 in 9.0 mi Calm Calm - N/A   Clear
11:55 PM 75.2 °F - 73.4 °F 94% 30.14 in 9.0 mi Calm Calm - N/A   Clear